Regional Weather Roundup
Issued by NWS

Home | Current Version | Previous Version | Text Only | Print | Product List | Glossary Off
Versions: 1 2 3 4 5 6 7 8 9 10 11 12 13 14 15 16 17 18 19 20 21 22 23 24 25 26 27 28 29 30 31 32 33 34 35 36 37 38 39 40 41 42 43 44 45 46 47 48 49 50

000
ASUS43 KBIS 222020
RWRND

NORTH DAKOTA REGIONAL WEATHER ROUNDUP
NATIONAL WEATHER SERVICE BISMARCK ND
200 PM CST MON DEC 22 2014

NOTE: "FAIR" INDICATES FEW OR NO CLOUDS BELOW 12,000 FEET WITH NO
SIGNIFICANT WEATHER AND/OR OBSTRUCTIONS TO VISIBILITY.


NDZ001>003-009>011-017-222100-
NORTHWEST NORTH DAKOTA

CITY           SKY/WX    TMP DP  RH WIND       PRES   REMARKS
WILLISTON      CLOUDY    27  22  81 N13       29.64R WCI  16
MINOT          CLOUDY    28  26  92 N15       29.57R WCI  16
MINOT AFB      CLOUDY    28  28 100 N10       29.58R WCI  19
$$

NDZ018>021-031>035-040>046-222100-
SOUTHWEST NORTH DAKOTA

CITY           SKY/WX    TMP DP  RH WIND       PRES   REMARKS
BISMARCK       CLOUDY    31  29  92 N13       29.51S
DICKINSON      SNOW      26  23  88 NW21      29.54R VSB 1/4 WCI  12
GARRISON         N/A     29  27  92 N9        29.55R
HETTINGER ARPT LGT SNOW  27  23  85 NW24G31   29.54R FOG     WCI  12
$$

NDZ004>008-012>016-024-026-027-054-222100-
NORTHEAST NORTH DAKOTA

CITY           SKY/WX    TMP DP  RH WIND       PRES   REMARKS
GRAND FORKS    LGT RAIN  36  36 100 E6        29.54R FOG
GRND FRKS AFB  DRIZZLE   36  36 100 E7        29.55R FOG
DEVILS LAKE    CLOUDY    34  32  93 NE10      29.53R
$$

NDZ022-023-025-028>030-036>039-047>053-222100-
SOUTHEAST NORTH DAKOTA

CITY           SKY/WX    TMP DP  RH WIND       PRES   REMARKS
FARGO          CLOUDY    41  38  89 SE12      29.50R
JAMESTOWN      LGT SNOW  34  33  96 NE9       29.46R VSB 3/4
$$




USA.gov is the U.S. government's official web portal to all federal, state and local government web resources and services.